Theta_e
272 272 272 272 272 273 273 273 273 274 274 275 275 276 276 277 277 279 281 283 285 286 288 290 292 293 293 294 300 311 314 311
270 271 270 270 270 271 272 272 272 273 273 274 274 275 275 276 276 278 280 282 283 285 286 288 289 291 292 293 298 309 311 307
268 269 269 269 270 270 271 271 272 273 273 273 274 274 274 275 276 278 278 281 282 284 286 287 289 291 292 292 299 307 307 306
268 268 268 269 269 270 270 270 271 271 272 272 272 273 273 274 276 277 278 279 281 284 285 287 288 290 291 298 302 305 307 305
268 268 269 269 269 269 270 270 270 270 271 271 272 273 273 274 275 275 277 278 280 282 285 287 288 290 290 294 300 304 303 303
267 267 268 268 269 269 270 270 270 270 270 270 271 273 273 273 275 276 277 278 280 281 283 287 289 291 290 293 298 301 300 300
267 267 268 268 268 269 269 269 270 270 270 272 274 275 275 274 274 276 277 278 280 282 284 286 290 292 292 294 296 296 297 296
266 267 268 268 268 268 268 270 270 269 271 273 276 279 279 276 275 275 276 278 280 282 285 287 287 293 295 295 296 296 297 297
267 267 268 268 268 268 269 270 269 269 271 273 276 280 278 277 276 276 278 279 281 283 284 288 289 292 296 294 297 296 296 296
266 268 268 268 267 267 268 269 268 268 271 273 276 279 282 279 279 280 281 283 283 284 286 288 291 293 295 295 295 295 294 295
268 267 268 267 267 267 267 267 266 268 271 273 277 278 279 282 285 285 285 285 286 286 289 290 292 293 295 295 293 291 292 292
265 265 266 266 266 266 267 265 266 270 271 273 275 277 279 280 282 284 285 285 285 285 286 289 291 293 294 296 292 291 290 290
265 266 265 265 265 265 265 265 267 270 270 271 273 276 279 279 280 281 282 282 283 284 284 285 287 290 294 293 293 293 290 290
265 265 264 264 264 263 264 265 266 269 269 270 272 274 278 279 280 279 280 281 281 281 282 283 285 288 291 291 292 291 289 289
266 265 265 264 264 262 263 263 266 267 268 269 270 271 273 277 279 281 280 280 281 281 281 282 284 284 286 288 288 288 289 289
264 265 264 263 263 261 261 262 265 267 267 267 269 269 270 273 275 277 281 283 281 282 282 282 282 284 286 286 286 286 287 287
264 262 262 261 261 260 260 261 262 265 265 266 267 267 269 270 272 278 279 282 285 286 284 284 285 286 286 287 287 288 288 286
262 259 257 258 259 257 258 260 261 261 263 264 265 266 266 267 268 268 274 278 279 283 284 285 285 285 286 286 286 286 286 284
255 254 252 253 255 254 256 259 260 261 262 262 263 263 264 265 266 267 268 269 270 275 278 282 283 284 284 284 284 281 282 281
251 251 252 253 255 251 253 257 258 261 261 260 262 262 263 264 265 266 267 268 269 270 273 275 280 280 281 281 279 278 278 280
Wind_Speed
13 13 13 15 15 16 17 18 18 18 16 15 16 17 16 16 18 18 16 17 16 17 17 16 13 12 11 10 12 14 11 10
13 14 14 14 14 16 17 18 18 17 17 18 17 18 17 18 18 18 17 17 18 17 16 16 14 12 11 12 13 17 13 12
12 13 14 15 16 16 17 17 17 17 18 19 18 18 19 19 19 18 20 17 18 18 18 18 16 15 13 13 14 16 16 15
14 15 15 16 17 18 19 20 19 17 18 19 19 19 19 19 18 19 19 20 19 19 19 17 16 15 15 12 15 15 17 16
15 16 17 17 18 18 20 19 19 18 18 19 19 20 19 19 20 20 19 20 21 20 18 19 17 15 15 12 9 15 11 16
15 17 18 19 20 20 20 20 19 18 18 20 20 20 19 19 20 19 19 19 19 18 19 17 16 12 15 12 12 12 13 14
16 18 19 20 21 22 22 21 19 19 20 20 19 19 19 19 19 19 18 19 18 18 18 18 12 21 23 17 12 10 14 12
15 16 18 19 19 21 22 20 20 19 20 20 19 17 15 17 18 18 17 18 18 19 17 18 13 21 22 21 13 12 15 14
13 17 18 19 20 21 20 20 20 20 21 22 22 16 7 13 15 15 15 17 17 19 18 16 13 21 22 23 15 13 14 15
9 14 15 17 19 19 20 20 20 22 23 23 21 18 2 10 13 13 14 13 13 15 17 16 12 23 23 21 14 15 13 14
11 12 13 18 19 18 18 21 21 21 21 20 20 18 14 8 10 10 10 9 10 13 12 12 13 19 25 23 10 11 11 12
7 8 13 14 16 18 18 21 22 20 20 21 21 19 17 13 11 9 8 8 7 8 5 11 12 15 27 27 13 12 12 11
7 7 10 13 14 16 19 19 19 20 20 21 21 17 15 17 15 14 11 12 10 9 7 4 5 16 25 26 21 21 14 13
5 7 6 12 12 15 18 18 18 18 20 20 20 20 19 18 17 13 13 11 9 7 7 8 6 6 21 22 24 22 14 11
5 8 8 11 12 11 15 17 15 16 17 17 18 19 19 17 15 15 13 10 8 9 9 8 9 8 9 12 15 24 18 24
6 4 6 8 11 11 14 14 15 15 16 16 15 17 15 15 17 17 20 20 12 13 13 13 12 10 14 12 12 12 19 18
6 5 6 5 8 12 12 12 12 13 13 13 12 13 13 12 11 27 33 38 35 33 22 16 26 27 29 26 26 26 26 15
6 6 5 4 4 9 12 11 11 10 11 10 12 11 12 13 14 15 17 30 36 36 36 33 26 28 29 31 31 25 26 14
3 6 6 6 4 5 7 10 10 10 11 8 8 9 8 9 9 8 11 13 14 22 29 33 33 32 31 28 23 16 18 13
3 4 7 6 6 4 7 6 8 8 8 7 6 6 8 8 7 7 7 9 10 10 15 17 28 30 32 29 15 14 13 12
Wind_Direction
323 314 310 308 303 297 291 288 285 283 276 270 265 260 255 250 247 245 244 241 240 237 239 242 244 246 245 245 257 229 195 178
308 311 305 297 295 292 288 286 285 282 276 271 266 260 254 248 245 243 244 238 235 236 236 238 234 238 241 237 242 236 206 162
304 308 304 302 301 293 293 296 291 284 277 271 267 259 250 246 242 241 239 236 234 234 233 233 235 234 235 233 231 231 183 179
322 319 312 310 304 301 301 301 298 290 281 272 264 255 246 241 237 235 235 235 232 229 229 227 229 232 231 239 224 228 191 174
327 320 316 313 305 306 304 302 297 292 283 277 269 258 247 237 228 228 226 227 228 228 225 223 225 229 227 222 212 203 194 174
320 319 316 315 315 315 311 306 304 297 292 282 272 258 242 231 225 220 219 221 221 220 226 223 221 221 219 211 208 199 191 179
319 319 320 320 318 317 315 313 311 308 299 292 283 262 234 217 211 210 209 215 216 218 214 219 219 217 217 200 198 205 178 180
317 318 318 319 318 315 318 318 322 318 317 317 314 297 205 193 193 198 202 207 211 215 214 210 220 214 208 189 187 178 179 184
321 318 321 320 326 325 326 330 330 329 333 335 339 344 125 164 179 186 197 202 206 210 209 208 221 216 201 185 182 182 183 179
295 307 316 327 329 331 332 336 340 341 341 343 350 353 61 171 178 184 190 192 198 210 206 205 220 210 195 179 181 190 178 176
319 314 331 335 333 337 343 340 347 340 343 347 359 5 11 34 178 172 179 190 195 198 201 198 213 194 191 182 173 171 171 164
318 322 324 334 339 345 349 349 334 342 349 358 0 10 16 29 44 84 107 109 119 116 131 189 188 190 181 178 169 167 164 157
331 337 319 340 349 349 354 338 337 347 356 360 4 7 13 31 37 47 58 72 72 89 86 67 138 173 174 166 164 166 154 160
337 332 327 342 357 349 342 341 341 354 359 359 7 13 17 25 38 36 40 54 62 67 86 84 79 116 146 154 155 154 138 141
356 336 3 343 350 349 341 340 347 1 5 1 10 8 14 22 25 39 44 42 51 57 70 73 66 88 119 124 123 118 113 113
327 344 355 343 346 352 346 347 356 4 6 11 8 10 8 14 25 27 33 38 45 52 58 63 70 69 85 104 110 114 116 114
312 333 343 25 348 348 350 352 4 13 5 7 9 7 9 11 17 32 34 34 42 48 53 53 53 64 69 74 85 93 101 95
294 313 331 23 16 351 341 350 10 20 4 1 11 18 6 8 15 12 9 35 35 40 47 52 56 57 62 66 65 68 79 77
304 319 326 341 57 341 342 350 5 5 19 13 13 2 19 16 15 19 25 19 14 21 34 49 48 54 61 66 71 60 58 66
322 316 323 336 343 30 347 21 7 9 4 5 8 22 16 12 54 47 39 44 42 24 22 21 49 53 53 55 60 65 62 60